Regional Weather Roundup
Issued by NWS

Home | Current Version | Previous Version | Graphics & Text | Print | Product List | Glossary On
Versions: 1 2 3 4 5 6 7 8 9 10 11 12 13 14 15 16 17 18 19 20 21 22 23 24 25 26 27 28
000
ASUS45 KGTF 242110
RWRMT
MONTANA HOURLY WEATHER ROUNDUP
NATIONAL WEATHER SERVICE GREAT FALLS MT
300 PM MDT FRI APR 24 2015

NOTE: "FAIR" INDICATES FEW OR NO CLOUDS BELOW 12000 FEET WITH NO
SIGNIFICANT WEATHER AND/OR OBSTRUCTIONS TO VISIBILITY.

MTZ001>007-043-242200-
WEST OF THE DIVIDE

CITY           SKY/WX    TMP DP  RH WIND       PRES   REMARKS
KALISPELL      CLOUDY    54  22  28 W18       29.69R
MISSOULA       CLOUDY    53  29  39 W10       29.72F
BUTTE          LGT RAIN  38  35  89 NW12      29.69R WCI  30
DEER LODGE       N/A     46  34  61 NW7       29.73R
EUREKA           N/A     54  19  26 SW15G22   29.71S
HAMILTON         N/A     48  36  61 E3        29.72S
LIBBY            N/A     52  21  30 SW5       29.74F
$$

MTZ008-052>055-242200-
SOUTHWEST MONTANA

CITY           SKY/WX    TMP DP  RH WIND       PRES   REMARKS
BOZEMAN        PTSUNNY   57  36  45 W20G26    29.59R
DILLON         LGT RAIN  50  37  61 NW15      29.60R
$$

MTZ009-010-012-014-046-048-049-054-242200-
EAST SLOPES AND CENTRAL MONTANA

CITY           SKY/WX    TMP DP  RH WIND       PRES   REMARKS
CUT BANK       CLOUDY    54  20  26 W25G35    29.62F
GREAT FALLS    CLOUDY    53  36  52 SE3       29.63F
MALMSTROM AFB  CLOUDY    50  43  79 E7        29.65S
HELENA         LGT RAIN  49  39  68 W5        29.66S
$$

MTZ011-013-016-021-045-047-050-051-242200-
NORTH CENTRAL MONTANA

CITY           SKY/WX    TMP DP  RH WIND       PRES   REMARKS
HAVRE          CLOUDY    60  31  33 W10       29.61R
LEWISTOWN      CLOUDY    59  35  40 N12       29.62F
CHINOOK          N/A     61  32  33 CALM      29.61S
FORT BENTON      N/A     54  37  54 CALM      29.66F
$$

MTZ017>020-022>042-056>058-061-062-242200-
EASTERN PLAINS

CITY           SKY/WX    TMP DP  RH WIND       PRES   REMARKS
BAKER          SUNNY     71  29  21 E6        29.58F
BILLINGS       MOSUNNY   70  27  20 SE10      29.55F
GLASGOW        MOSUNNY   67  39  35 W8        29.58F
JORDAN           N/A     70  35  27 N8        29.55F
LIVINGSTON     CLOUDY    61  32  33 NW12G17   29.55S
MILES CITY     MOSUNNY   72  38  29 VRB5      29.52F
SIDNEY         SUNNY     70  32  24 CALM      29.59F
WOLF POINT     CLOUDY    72  37  28 SE7       29.55F
BIG TIMBER       N/A     63  28  27 E5        29.57
FORSYTH          N/A     70  39  32 W5        29.53F
PLENTYWOOD       N/A     64  30  27 NE3       29.61F
POPLAR           N/A     70  34  26 SE5       29.57F
$$

REGIONAL REPORTS...DAKOTAS

CITY           SKY/WX    TMP DP  RH WIND       PRES   REMARKS
WILLISTON      SUNNY     67  31  26 E7        29.61F
MINOT          SUNNY     61  33  35 VRB7      29.64F
DICKINSON      SUNNY     67  34  29 NE8       29.58F
BEACH          FAIR      68  28  22 S6        29.60S
CROSBY         FAIR      63  30  29 S9        29.64S
WATFORD CITY   FAIR      64  28  25 CALM      29.59F
BISMARCK       SUNNY     66  39  37 E12G18    29.60F
GRAND FORKS    CLOUDY    53  38  56 SE12      29.74F
FARGO          CLOUDY    53  41  63 SE16      29.70S
BUFFALO SD       N/A     69  31  24 E8        29.53F
RAPID CITY     CLOUDY    61  44  53 W13       29.57F
$$

REGIONAL REPORTS...WYOMING/IDAHO/WASHINGTON

CITY           SKY/WX    TMP DP  RH WIND       PRES   REMARKS
GILLETTE       PTSUNNY   62  37  39 E7        29.58F
SHERIDAN       PTSUNNY   66  37  34 NW9       29.57S
BUFFALO WY     PTSUNNY   63  38  39 S8        29.61F
CODY           CLOUDY    63  27  25 CALM      29.58S
YELLOWSTONE LA   N/A     47  22  37 VRB6      29.73S
IDAHO FALLS    PTSUNNY   61  37  41 SW23G31   29.64F
SALMON         CLOUDY    45  39  81 SW8       29.69S
BOISE          CLOUDY    54  39  57 N10       29.75F
SPOKANE        PTSUNNY   50  26  39 S13       29.77F
$$

REGIONAL REPORTS...ALBERTA

CITY           SKY/WX    TMP DP  RH WIND       PRES   REMARKS
EDMONTON       CLOUDY    43  34  70 NE17      29.73S
CALGARY        PTSUNNY   54  34  47 NE8G17    29.61F
LETHBRIDGE     PTSUNNY   54  27  35 SW10G24   29.61F
MEDICINE HAT   CLOUDY    57  32  38 W15       29.60F
$$

REGIONAL REPORTS...SASKATCHEWAN

CITY           SKY/WX    TMP DP  RH WIND       PRES   REMARKS
SWIFT CURRENT  PTSUNNY   59  30  33 SW12      29.58S
REGINA         PTSUNNY   59  28  31 E8        29.66F
SASKATOON      PTSUNNY   55  34  44 E12G20    29.70S
$$



USA.gov is the U.S. government's official web portal to all federal, state and local government web resources and services.